1998-067PA

Last updated on Mon Jul 23 2018 00:15:03 GMT+0000 (Coordinated Universal Time)

1 43552U 98067PA 18203.37137610 .00006713 00000-0 10602-3 0 9990 2 43552 51.6410 203.2960 0005962 352.8705 7.2195 15.54784412 1378
UTC large
Height (km)
Speed (km/s)
/
Latitude / Longitude
Inclination (degrees)
Orbital Period (minutes)
Azimuth
Elevation
Range (km)
Doppler Factor

Next 0 passes for location: London (51.5072 / 0.1276)

Sorry there are no passes over London.